INFORMAÇÕES METEOROLÓGICAS
METAR FOR SBCH
ADDS - METARS form results

(1054 UTC 18 July 2019)
Data provider http://aviationweather.gov/metar/data/
 
METAR text: SBCH 181000Z 09008KT CAVOK 09/06 Q1023
Conditions at: SBCH (CHAPECO , BR) observed 1000 UTC 18 July 2019
Temperature: 9.0°C (48°F)
Dewpoint: 6.0°C (43°F) [RH = 81%]
Pressure (altimeter): 30.21 inches Hg (1023.0 mb)
Winds: from the E (90 degrees) at 9 MPH (8 knots; 4.1 m/s)
Visibility: 6 or more miles (10+ km)
Ceiling: ceiling and visibility are OK
Clouds: unknown
Weather: no significant weather observed at this time

 MAPA DO AEROPORTO

 INFORMAÇÕES DA PISTA
Pista 11 Tamanho da pista 6768 ft Largura da pista 148 ft
Elevação da pista 0 ft Ranhura da pista 0 ft Proa da pista 0
Pista 29 Tamanho da pista 6768 ft Largura da pista 148 ft
Elevação da pista 0 ft Ranhura da pista 0 ft Proa da pista 0

 FREQUÊNCIAS DO AEROPORTO
Tipo AFIS Nome RDO Frequência 130.85 MHZ

 AUXÍLIOS DE NAVEGAÇÃO PRÓXIMOS AO AEROPORTO
Tipo VOR-DME Nome Chapeco Frequência 116100 KHZ
Tipo NDB Nome Chapeco Frequência 173 KHZ





Powered by Virtual Airlines Manager [v2.6.2]